| time (UTC) | temp F | wind direction | speed MPH | gust MPH | rain 1hr in | rain 24hr in | rain mn in | humidity % | barometer mb |
| 20260506231520 | 55 | 252 | 2.0 | 11.0 | 0.00 | 0.08 | 0.01 | 40 | 1012.7 |
| 20260506230020 | 55 | 352 | 4.0 | 8.0 | 0.00 | 0.09 | 0.01 | 40 | 1012.7 |
| 20260506224520 | 55 | 272 | 2.0 | 12.0 | 0.00 | 0.10 | 0.01 | 41 | 1012.6 |
| 20260506223020 | 56 | 9 | 3.0 | 4.0 | 0.00 | 0.10 | 0.01 | 40 | 1012.7 |
| 20260506221515 | 56 | 9 | 4.0 | 8.0 | 0.00 | 0.10 | 0.01 | 37 | 1012.6 |
| 20260506220016 | 55 | 352 | 3.0 | 7.0 | 0.00 | 0.10 | 0.01 | 39 | 1012.7 |
| 20260506214517 | 55 | 252 | 1.0 | 3.0 | 0.00 | 0.11 | 0.01 | 41 | 1012.7 |
| 20260506213022 | 55 | 306 | 1.0 | 7.0 | 0.00 | 0.13 | 0.01 | 39 | 1012.7 |
| 20260506211503 | 56 | 352 | 2.0 | 7.0 | 0.00 | 0.14 | 0.01 | 40 | 1012.5 |
| 20260506210009 | 56 | 21 | 3.0 | 9.0 | 0.00 | 0.16 | 0.01 | 39 | 1012.5 |
| 20260506204503 | 55 | 304 | 2.0 | 13.0 | 0.00 | 0.16 | 0.01 | 39 | 1012.5 |
| 20260506203005 | 56 | 57 | 3.0 | 10.0 | 0.00 | 0.17 | 0.01 | 37 | 1012.5 |
| 20260506201504 | 56 | 263 | 2.0 | 11.0 | 0.00 | 0.18 | 0.01 | 37 | 1012.8 |
| 20260506200004 | 56 | 327 | 2.0 | 10.0 | 0.00 | 0.18 | 0.01 | 40 | 1012.8 |
| 20260506194505 | 55 | 60 | 4.0 | 13.0 | 0.00 | 0.18 | 0.01 | 39 | 1012.7 |
| 20260506193004 | 54 | 299 | 5.0 | 12.0 | 0.00 | 0.18 | 0.01 | 42 | 1013.0 |
| 20260506191504 | 53 | 293 | 5.0 | 10.0 | 0.00 | 0.18 | 0.01 | 37 | 1013.1 |
| 20260506190005 | 54 | 44 | 7.0 | 13.0 | 0.00 | 0.18 | 0.01 | 39 | 1013.0 |
| 20260506184509 | 55 | 360 | 7.0 | 11.0 | 0.00 | 0.20 | 0.01 | 37 | 1013.0 |
| 20260506183011 | 54 | 259 | 2.0 | 12.0 | 0.00 | 0.20 | 0.01 | 43 | 1012.7 |
| 20260506181509 | 54 | 16 | 7.0 | 13.0 | 0.00 | 0.20 | 0.01 | 37 | 1012.5 |
| 20260506180013 | 55 | 344 | 6.0 | 13.0 | 0.00 | 0.20 | 0.01 | 38 | 1012.4 |
| 20260506174513 | 55 | 9 | 2.0 | 14.0 | 0.00 | 0.20 | 0.01 | 40 | 1012.5 |
| 20260506173019 | 55 | 352 | 8.0 | 17.0 | 0.00 | 0.20 | 0.01 | 37 | 1012.7 |
| 20260506171515 | 55 | 346 | 7.0 | 15.0 | 0.00 | 0.20 | 0.01 | 40 | 1012.8 |
| 20260506170017 | 55 | 326 | 5.0 | 14.0 | 0.00 | 0.20 | 0.01 | 41 | 1012.9 |
| 20260506164516 | 55 | 346 | 4.0 | 12.0 | 0.00 | 0.20 | 0.01 | 41 | 1012.8 |
| 20260506163031 | 56 | 59 | 5.0 | 14.0 | 0.00 | 0.20 | 0.01 | 43 | 1012.9 |
| 20260506161520 | 56 | 26 | 3.0 | 13.0 | 0.00 | 0.20 | 0.01 | 43 | 1012.8 |
| 20260506160021 | 54 | 9 | 5.0 | 14.0 | 0.00 | 0.20 | 0.01 | 46 | 1012.9 |
| 20260506154524 | 54 | 18 | 7.0 | 14.0 | 0.00 | 0.20 | 0.01 | 44 | 1012.9 |
| 20260506153021 | 54 | 336 | 8.0 | 14.0 | 0.00 | 0.20 | 0.01 | 45 | 1012.9 |
| 20260506151529 | 53 | 9 | 6.0 | 12.0 | 0.00 | 0.20 | 0.01 | 47 | 1012.5 |
| 20260506150022 | 53 | 271 | 3.0 | 11.0 | 0.00 | 0.20 | 0.01 | 46 | 1012.5 |
| 20260506144532 | 53 | 360 | 6.0 | 12.0 | 0.00 | 0.20 | 0.01 | 46 | 1012.3 |
| 20260506143027 | 53 | 344 | 7.0 | 12.0 | 0.00 | 0.20 | 0.01 | 46 | 1012.3 |
| 20260506141531 | 52 | 33 | 4.0 | 11.0 | 0.00 | 0.20 | 0.01 | 51 | 1012.1 |
| 20260506140006 | 52 | 46 | 6.0 | 12.0 | 0.00 | 0.20 | 0.01 | 49 | 1012.1 |
| 20260506134508 | 51 | 360 | 6.0 | 15.0 | 0.00 | 0.20 | 0.01 | 49 | 1012.0 |
| 20260506133007 | 51 | 265 | 4.0 | 10.0 | 0.00 | 0.20 | 0.01 | 55 | 1011.9 |
| 20260506131532 | 50 | 352 | 4.0 | 10.0 | 0.00 | 0.20 | 0.01 | 58 | 1011.6 |
| 20260506130011 | 49 | 323 | 5.0 | 12.0 | 0.00 | 0.20 | 0.01 | 64 | 1011.4 |
| 20260506124511 | 47 | 348 | 6.0 | 11.0 | 0.00 | 0.20 | 0.01 | 67 | 1011.3 |
| 20260506123014 | 45 | 22 | 4.0 | 8.0 | 0.00 | 0.20 | 0.01 | 73 | 1011.3 |
| 20260506121514 | 44 | 24 | 3.0 | 5.0 | 0.00 | 0.20 | 0.01 | 80 | 1011.0 |
| 20260506120018 | 44 | 344 | 0.0 | 3.0 | 0.00 | 0.20 | 0.01 | 84 | 1010.9 |
| 20260506114516 | 44 | 344 | 1.0 | 3.0 | 0.00 | 0.20 | 0.01 | 84 | 1010.7 |
| 20260506113018 | 44 | 342 | 0.0 | 0.0 | 0.00 | 0.20 | 0.01 | 86 | 1010.3 |
| 20260506111516 | 44 | 306 | 0.0 | 3.0 | 0.00 | 0.20 | 0.01 | 87 | 1010.2 |
| 20260506110022 | 44 | 348 | 1.0 | 4.0 | 0.00 | 0.20 | 0.01 | 89 | 1009.9 |
| 20260506104519 | 44 | 343 | 0.0 | 0.0 | 0.00 | 0.20 | 0.01 | 91 | 1009.7 |
| 20260506103022 | 44 | 333 | 1.0 | 2.0 | 0.00 | 0.20 | 0.01 | 92 | 1009.6 |
| 20260506101539 | 44 | 329 | 0.0 | 0.0 | 0.00 | 0.20 | 0.01 | 92 | 1009.5 |
| 20260506100026 | 44 | 329 | 0.0 | 1.0 | 0.00 | 0.20 | 0.01 | 92 | 1009.7 |
| 20260506094525 | 44 | 321 | 0.0 | 2.0 | 0.00 | 0.20 | 0.01 | 92 | 1009.1 |
| 20260506093037 | 44 | 283 | 0.0 | 0.0 | 0.00 | 0.20 | 0.01 | 92 | 1009.2 |
| 20260506091504 | 44 | 268 | 0.0 | 0.0 | 0.00 | 0.20 | 0.01 | 92 | 1009.2 |
| 20260506090005 | 44 | 268 | 0.0 | 0.0 | 0.00 | 0.20 | 0.01 | 92 | 1009.5 |
| 20260506084505 | 44 | 268 | 0.0 | 0.0 | 0.00 | 0.20 | 0.01 | 92 | 1009.1 |
| 20260506083007 | 44 | 268 | 0.0 | 0.0 | 0.00 | 0.20 | 0.01 | 92 | 1009.0 |
| 20260506081506 | 44 | 268 | 0.0 | 0.0 | 0.00 | 0.21 | 0.01 | 92 | 1009.5 |
| 20260506073020 | 44 | 268 | 0.0 | 0.0 | 0.00 | 0.21 | 0.01 | 92 | 1009.1 |
| 20260506071514 | 44 | 268 | 0.0 | 0.0 | 0.00 | 0.21 | 0.01 | 92 | 1009.1 |
| 20260506061516 | 45 | 342 | 0.0 | 0.0 | 0.00 | 0.21 | 0.01 | 92 | 1009.6 |
| 20260506044549 | 46 | 328 | 0.0 | 0.0 | 0.00 | 0.20 | 0.00 | 92 | 1009.7 |
| 20260506043022 | 45 | 328 | 0.0 | 0.0 | 0.00 | 0.20 | 0.00 | 92 | 1009.4 |
| 20260506041524 | 46 | 328 | 0.0 | 0.0 | 0.00 | 0.20 | 0.00 | 92 | 1009.5 |
| 20260506040028 | 46 | 328 | 0.0 | 0.0 | 0.00 | 0.23 | 0.00 | 91 | 1009.6 |
| 20260506034548 | 46 | 328 | 0.0 | 0.0 | 0.00 | 0.23 | 0.23 | 91 | 1009.4 |
| 20260506033027 | 45 | 328 | 0.0 | 0.0 | 0.00 | 0.23 | 0.23 | 91 | 1009.3 |
| 20260506031528 | 45 | 328 | 0.0 | 0.0 | 0.01 | 0.23 | 0.23 | 90 | 1009.4 |
| 20260506030028 | 46 | 328 | 0.0 | 0.0 | 0.01 | 0.23 | 0.23 | 90 | 1009.2 |
| 20260506024528 | 46 | 328 | 0.0 | 0.0 | 0.02 | 0.23 | 0.23 | 88 | 1009.4 |
| 20260506023028 | 46 | 328 | 0.0 | 0.0 | 0.03 | 0.23 | 0.23 | 87 | 1009.5 |
| 20260506021530 | 47 | 346 | 0.0 | 4.0 | 0.03 | 0.22 | 0.22 | 86 | 1009.4 |
| 20260506020026 | 48 | 10 | 3.0 | 8.0 | 0.03 | 0.22 | 0.22 | 89 | 1009.4 |
| 20260506014530 | 48 | 294 | 0.0 | 1.0 | 0.03 | 0.21 | 0.21 | 92 | 1009.3 |
| 20260506013027 | 48 | 335 | 0.0 | 2.0 | 0.02 | 0.20 | 0.20 | 91 | 1009.0 |
| 20260506011517 | 48 | 226 | 0.0 | 0.0 | 0.01 | 0.19 | 0.19 | 91 | 1008.7 |
| 20260506010016 | 49 | 231 | 0.0 | 0.0 | 0.01 | 0.19 | 0.19 | 91 | 1008.5 |
| 20260506004532 | 49 | 231 | 0.0 | 0.0 | 0.01 | 0.18 | 0.18 | 91 | 1008.5 |
| 20260506003029 | 49 | 231 | 0.0 | 0.0 | 0.01 | 0.18 | 0.18 | 90 | 1008.5 |
| 20260506001504 | 49 | 249 | 0.0 | 0.0 | 0.02 | 0.18 | 0.18 | 90 | 1008.5 |
| 20260506000003 | 49 | 249 | 0.0 | 0.0 | 0.03 | 0.18 | 0.18 | 90 | 1008.5 |
| 20260505234508 | 49 | 259 | 0.0 | 2.0 | 0.03 | 0.17 | 0.17 | 89 | 1008.5 |
| 20260505233007 | 50 | 234 | 0.0 | 0.0 | 0.03 | 0.17 | 0.17 | 89 | 1008.2 |